sat.trackr.live / text

‹ back to catalog

SDA_1666

NORAD 65976 · 2025-230C

PAYLOAD ACTIVE UNKNOWN

§ Identity

Operator
Country
US
Launch date
2025-10-15
Launch site
AFWTR
Launch vehicle
Mass (kg)
RCS (m²)

External: N2YO · Heavens-Above · Gunter

§ Orbital elements

Epoch: 2026-09-20T14:35:27.672288Z

Period
104.20 min
Inclination
81.2983°
Eccentricity
0.0001158
Mean motion
13.81922566 rev/d
Perigee alt
956.2 km
Apogee alt
957.9 km
Semi-major
7,335.2 km
B*
9.9089e-5
RAAN
123.8955°
Arg perigee
48.5118°
Mean anomaly
311.6137°
Rev number
4,697

§ Raw data

SDA_16661 65976U 25230C   26263.60795917  .00000118  00000+0  99089-4 0  99962 65976  81.2983 123.8955 0001158  48.5118 311.6137 13.81922566 46972

JSON: /api/v1/satellites/65976 · /tle

For live sub-satellite position, see the globe view (requires WebGL).

§ Visibility from observer

Set your observer location to see the next 7 days of passes ≥ 10°. The values pass through the URL so the page stays shareable.

No JS? Fill the form by hand. The geolocation button needs JavaScript.